TimeMST,TemperatureF,Dew PointF,Humidity,Sea Level PressureIn,VisibilityMPH,Wind Direction,Wind SpeedMPH,Gust SpeedMPH,PrecipitationIn,Events,Conditions,WindDirDegrees,DateUTC
12:53 AM,27.0,24.1,89,29.96,10.0,North,8.1,-,N/A,,Clear,350,2013-03-08 07:53:00
1:53 AM,25.0,23.0,92,29.95,10.0,NE,9.2,-,N/A,,Clear,40,2013-03-08 08:53:00
2:53 AM,26.1,23.0,88,29.92,9.0,North,6.9,-,N/A,,Clear,350,2013-03-08 09:53:00
3:53 AM,26.1,21.9,84,29.93,8.0,ENE,10.4,-,N/A,,Clear,60,2013-03-08 10:53:00
4:53 AM,28.0,24.1,85,29.93,10.0,ENE,9.2,-,N/A,,Clear,60,2013-03-08 11:53:00
5:53 AM,25.0,21.9,88,29.96,9.0,ENE,8.1,-,N/A,,Clear,70,2013-03-08 12:53:00
6:53 AM,28.0,25.0,88,29.99,7.0,ENE,4.6,-,N/A,,Clear,70,2013-03-08 13:53:00
8:53 AM,36.0,28.9,76,29.96,9.0,NNE,6.9,-,N/A,,Clear,20,2013-03-08 15:53:00
9:53 AM,39.0,30.0,70,29.94,10.0,NW,3.5,-,N/A,,Clear,310,2013-03-08 16:53:00
10:53 AM,42.1,30.0,62,29.91,10.0,NNW,6.9,-,N/A,,Clear,340,2013-03-08 17:53:00
11:53 AM,45.0,30.0,56,29.90,10.0,Variable,3.5,-,N/A,,Clear,0,2013-03-08 18:53:00
12:53 PM,46.9,30.9,54,29.82,10.0,North,11.5,16.1,N/A,,Clear,350,2013-03-08 19:53:00
1:53 PM,46.9,30.9,54,29.81,10.0,NNW,8.1,-,N/A,,Clear,340,2013-03-08 20:53:00
2:53 PM,46.9,30.9,54,29.79,10.0,NE,4.6,-,N/A,,Partly Cloudy,50,2013-03-08 21:53:00
3:53 PM,46.9,30.0,52,29.78,10.0,East,9.2,-,N/A,,Clear,80,2013-03-08 22:53:00
4:53 PM,46.0,30.0,54,29.77,10.0,East,8.1,-,N/A,,Clear,100,2013-03-08 23:53:00
5:53 PM,39.9,28.9,65,29.80,10.0,East,6.9,-,N/A,,Clear,80,2013-03-09 00:53:00
6:53 PM,39.9,30.0,68,29.78,10.0,ENE,9.2,-,N/A,,Clear,70,2013-03-09 01:53:00
7:53 PM,37.0,30.0,76,29.75,10.0,ENE,9.2,-,N/A,,Clear,70,2013-03-09 02:53:00
8:53 PM,36.0,28.9,76,29.76,10.0,ENE,4.6,-,N/A,,Clear,70,2013-03-09 03:53:00
9:53 PM,34.0,28.9,82,29.72,10.0,NNE,3.5,-,N/A,,Clear,20,2013-03-09 04:53:00
10:53 PM,36.0,32.0,86,29.68,10.0,NE,4.6,-,N/A,,Overcast,40,2013-03-09 05:53:00
11:53 PM,37.0,32.0,82,29.65,10.0,NW,4.6,-,N/A,,Overcast,310,2013-03-09 06:53:00